[[{"header":{"parameterUnit":"m.s-1","parameterCategory":1,"la1":30.2991,"la2":30.254,"lo1":-89.0895,"lo2":-89.0444,"dy":0.0017,"dx":0.0017,"nx":28,"ny":28,"refTime":"2024-06-26T21:00:00:Z","depth":0,"parameterNumber":2,"parameterNumberName":"U-component_of_WINDS"},"data":[0,0,0,0,0,0,0,0,0,0,0,0,0,0,0,0,0,0,0,0,0,0,0,0,0,0,0,0,0,0,0,0,0,0,0,0,0,0,0,0,0,0,0,0,0,0,0,0,0,0,0,0,0,0,0,0,0,0,6.8701,6.8704,0,6.8942,6.8945,6.8948,6.8918,6.8914,6.891,6.8906,6.9158,6.9168,6.9178,0,0,0,0,0,0,0,0,0,0,0,0,0,6.8216,6.8225,6.8701,6.8704,6.8707,6.8942,6.8945,6.8949,6.8919,6.8914,6.8909,6.8905,6.9155,6.9167,6.9179,0,0,0,0,0,0,0,0,0,0,0,0,0,6.8439,6.8228,6.87,6.872,6.8724,6.8941,6.8945,6.895,6.892,6.8914,6.8908,6.8902,6.915,6.9166,6.9181,6.9395,0,0,6.9228,6.9235,0,0,0,0,0,0,0,0,6.8427,6.8457,6.8714,6.8719,6.8724,6.8894,6.8867,6.9099,6.8921,6.8846,6.8906,6.8899,6.9075,6.9097,6.9155,6.9407,6.9418,6.923,6.9239,6.9246,6.925,0,0,0,0,0,0,0,6.8411,6.8446,6.8796,6.8718,6.8724,6.8718,6.8743,6.8911,6.8991,6.8852,6.885,6.8879,6.9077,6.914,6.9161,6.9421,6.9229,6.9243,6.9253,6.9259,6.9859,6.9866,0,0,0,0,0,0,6.839,6.8434,6.8789,6.8804,6.8558,6.8731,6.8759,6.8845,6.8989,6.9005,6.8884,6.8877,6.9116,6.9143,6.9169,6.9428,6.9246,6.926,6.9269,6.9853,6.9861,6.9868,0,0,0,0,0,0,6.838,6.8422,6.8779,6.8618,6.8663,6.8746,6.8843,6.8853,6.8916,6.9013,6.9027,6.8933,6.9113,6.9147,6.9338,6.9436,6.9267,6.9282,6.9845,6.9855,6.9864,6.9947,0,0,0,0,0,0,6.8366,6.8419,6.85,6.862,6.8672,6.8943,6.8849,6.8862,6.8943,6.8936,6.9063,6.9079,6.9111,6.9315,6.9354,6.9454,6.9294,6.9837,6.985,6.9861,6.9936,6.9958,6.9978,0,0,0,0,0,6.8349,6.8515,6.8504,6.8547,6.8776,6.8949,6.8979,6.9011,6.8951,6.9034,6.9095,6.9075,6.9419,6.9335,6.9378,6.9485,6.9831,6.9846,6.986,6.9926,6.9954,6.9977,0,0,0,0,0,0,6.8406,6.8531,6.8521,6.8731,6.8829,6.8943,6.9049,6.9039,6.9158,6.9147,6.9183,6.9212,6.9405,6.9465,6.9368,6.9699,6.9617,6.9641,6.9652,6.9679,6.97,6.9681,6.9307,0,0,0,0,0,6.8442,6.8572,6.8675,6.885,6.89,6.8966,6.9043,6.9059,6.9163,6.9205,6.9281,6.9384,6.9515,6.9601,6.9727,6.9945,6.9971,7.004,7.006,7.0077,7.0097,7.0215,7.0245,6.9917,6.9917,6.9916,0,0,6.852,6.8605,6.8685,6.8864,6.8942,6.9076,6.9002,6.9147,6.9246,6.9228,6.9411,6.9471,6.9588,6.9793,6.9887,6.9848,7.0194,7.0096,7.0109,7.012,7.0233,7.0264,7.0292,6.9927,6.9925,6.9924,0,0,6.8729,6.8807,6.896,6.904,6.9158,6.9201,6.9238,6.9354,6.9392,6.9577,6.9565,6.9685,6.9911,6.9994,7.0066,7.0306,7.0291,7.0347,7.0455,7.057,7.0595,7.0618,7.0702,7.0732,7.0367,7.0367,7.0367,0,6.8811,6.901,6.9041,6.9187,6.9265,6.9254,6.9409,6.9485,6.964,6.9695,6.965,6.9931,7.001,7.0233,7.0291,7.035,7.0393,7.0331,7.0589,7.0613,7.0635,7.0714,7.0746,7.0373,7.0372,7.0371,7.0371,0,6.9104,6.9243,6.9353,6.95,6.9592,6.9742,6.9795,6.9885,6.9893,6.994,7.0128,7.0222,7.0366,7.042,7.0431,7.0645,7.0617,7.0581,7.0498,7.0671,7.0747,7.0778,7.0381,7.0379,7.0377,7.0376,0,0,6.9355,6.9516,6.9556,6.9622,6.9752,6.986,7.001,7.0149,7.0224,7.0331,7.0457,7.0648,7.0614,7.0696,7.0716,7.0816,7.0997,7.0767,7.077,7.0805,7.1236,7.1261,7.1296,7.0989,7.0995,7.1,7.1226,0,6.9575,6.9838,6.9869,7.0103,7.0231,7.0221,7.0351,7.0445,7.0494,7.061,7.0665,7.0798,7.0745,7.0793,7.0893,7.0954,7.1084,7.0939,7.1105,7.1111,7.1074,7.1336,7.1363,7.1572,7.1256,7.1261,7.1264,0,6.9867,6.998,7.0226,7.0336,7.0391,7.0507,7.0636,7.0748,7.0854,7.0882,7.0973,7.098,7.1134,7.1047,7.1261,7.1161,7.1231,7.1272,7.1281,7.1296,7.1196,7.1356,7.164,7.167,7.1312,7.1308,7.1305,0,7.0022,7.0237,7.0411,7.0468,7.0602,7.0683,7.0743,7.0843,7.0924,7.1038,7.1091,7.1222,7.1293,7.1395,7.1437,7.137,7.1647,7.1564,7.1674,7.1673,7.1731,7.1727,7.2028,7.1781,7.1781,7.178,7.1779,0,7.0263,7.0414,7.0482,7.0589,7.0757,7.0792,7.0957,7.1014,7.1103,7.1221,7.1223,7.1334,7.1383,7.1502,7.1537,7.1707,7.174,7.1767,7.1774,7.1765,7.1762,7.181,7.1796,7.1788,7.1787,7.1785,7.1784,0,7.0465,7.0517,7.0705,7.0816,7.0847,7.0966,7.1061,7.1165,7.1212,7.1361,7.1398,7.1473,7.1612,7.1664,7.1836,7.1859,7.2055,7.2052,7.2018,7.2019,7.2125,7.2113,7.2466,7.2513,7.2238,7.224,7.2243,0,7.0614,7.0729,7.0851,7.0929,7.0991,7.1118,7.12,7.1239,7.1325,7.1454,7.1542,7.1681,7.1793,7.2017,7.2087,7.2218,7.2216,7.2331,7.2236,7.2223,7.2215,7.2206,7.2217,7.2347,7.235,7.2353,7.2354,0,7.0873,7.0892,7.1009,7.1136,7.1233,7.1335,7.1434,7.1499,7.1553,7.1649,7.1791,7.1878,7.2052,7.2189,7.2323,7.2385,7.2379,7.2384,7.2416,7.2407,7.2382,7.2394,7.2063,7.2375,7.2373,7.2372,7.2371,7.237,7.1051,7.1152,7.1253,7.1383,7.1461,7.1553,7.1655,7.1714,7.1833,7.1975,7.1992,7.2144,7.2247,7.2425,7.2494,7.2614,7.2583,7.263,7.2641,7.2651,7.2657,7.2365,7.2639,7.2638,7.2638,7.2637,7.2637,0,7.1307,7.1371,7.1491,7.1628,7.1731,7.1715,7.1823,7.191,7.2043,7.2139,7.2249,7.2411,7.2544,7.2624,7.2758,7.2838,7.2839,7.2872,7.2865,7.2879,7.2679,7.2636,7.2869,7.2869,7.2869,7.2869,7.2869,7.2869,7.1453,7.1621,7.1653,7.186,7.1924,7.2071,7.2134,7.2219,7.2295,7.2475,7.2585,7.2635,7.2725,7.2865,7.2986,7.3006,7.3054,7.3089,7.3107,7.2918,7.2894,7.2871,7.2831,7.31,7.3101,7.3296,7.3298,7.33]},{"header":{"parameterUnit":"m.s-1","parameterCategory":1,"la1":30.2991,"la2":30.254,"lo1":-89.0895,"lo2":-89.0444,"dy":0.0017,"dx":0.0017,"nx":28,"ny":28,"refTime":"2024-06-26T21:00:00:Z","depth":0,"parameterNumber":3,"parameterNumberName":"V-component_of_WINDS"},"data":[0,0,0,0,0,0,0,0,0,0,0,0,0,0,0,0,0,0,0,0,0,0,0,0,0,0,0,0,0,0,0,0,0,0,0,0,0,0,0,0,0,0,0,0,0,0,0,0,0,0,0,0,0,0,0,0,0,0,2.1443,2.1444,0,2.1492,2.1492,2.1493,2.1451,2.1449,2.1447,2.1446,2.1496,2.1499,2.1502,0,0,0,0,0,0,0,0,0,0,0,0,0,2.1313,2.1315,2.1443,2.1444,2.1444,2.1492,2.1492,2.1493,2.1451,2.1449,2.1447,2.1445,2.1495,2.1498,2.1502,0,0,0,0,0,0,0,0,0,0,0,0,0,2.1366,2.1316,2.1443,2.1429,2.1428,2.1492,2.1492,2.1493,2.1451,2.1449,2.1446,2.1444,2.1494,2.1498,2.1502,2.1582,0,0,2.1516,2.1518,0,0,0,0,0,0,0,0,2.1363,2.1371,2.1431,2.143,2.1429,2.1462,2.1465,2.1523,2.1452,2.1443,2.1446,2.1443,2.1487,2.1492,2.1507,2.1584,2.1586,2.1516,2.1519,2.1521,2.1522,0,0,0,0,0,0,0,2.136,2.1369,2.1462,2.1431,2.1431,2.142,2.1425,2.1476,2.1479,2.1443,2.144,2.1447,2.1486,2.1502,2.1507,2.1587,2.1516,2.152,2.1523,2.1525,2.1731,2.1734,0,0,0,0,0,0,2.1357,2.1366,2.1461,2.1464,2.1389,2.1424,2.143,2.1455,2.1478,2.1479,2.1449,2.1445,2.1496,2.1502,2.1509,2.1603,2.1521,2.1525,2.1528,2.1728,2.1732,2.1735,0,0,0,0,0,0,2.1355,2.1366,2.1459,2.1414,2.1425,2.1429,2.1458,2.1457,2.1473,2.1482,2.1483,2.1465,2.1494,2.1503,2.1564,2.1605,2.1527,2.1531,2.1725,2.1729,2.1733,2.1793,0,0,0,0,0,0,2.1351,2.1366,2.1396,2.1415,2.1428,2.1514,2.146,2.146,2.1481,2.1476,2.1498,2.1499,2.1493,2.1557,2.1568,2.1609,2.1535,2.1721,2.1727,2.1732,2.1787,2.1799,2.1808,0,0,0,0,0,2.1347,2.1412,2.1398,2.141,2.1466,2.1516,2.1523,2.1515,2.1484,2.1515,2.152,2.1498,2.1598,2.1564,2.1576,2.1619,2.1719,2.1725,2.1731,2.1783,2.1796,2.1808,0,0,0,0,0,0,2.1398,2.1414,2.1399,2.1472,2.1493,2.1509,2.1547,2.153,2.156,2.1554,2.1542,2.1548,2.1612,2.1621,2.1583,2.1696,2.1653,2.1662,2.1688,2.1701,2.1712,2.1709,2.1538,0,0,0,0,0,2.1418,2.1457,2.1469,2.1532,2.1543,2.1543,2.1565,2.1556,2.1578,2.1586,2.1596,2.1618,2.1653,2.1678,2.1711,2.1788,2.1792,2.1823,2.1833,2.1842,2.185,2.189,2.1904,2.1755,2.1755,2.1755,0,0,2.146,2.1473,2.1499,2.1543,2.1558,2.1598,2.1551,2.1596,2.1626,2.1593,2.1651,2.1659,2.1682,2.1751,2.1782,2.1761,2.1892,2.185,2.1857,2.1861,2.1898,2.1912,2.1925,2.176,2.1759,2.1758,0,0,2.1556,2.157,2.1624,2.164,2.1663,2.1662,2.1675,2.1693,2.1697,2.1755,2.1731,2.1765,2.1828,2.1845,2.1862,2.1962,2.1943,2.1973,2.2029,2.2068,2.208,2.209,2.2126,2.2139,2.1981,2.1981,2.1982,0,2.1605,2.1666,2.1654,2.1701,2.1721,2.1691,2.1745,2.1761,2.1794,2.1808,2.1784,2.186,2.1874,2.1946,2.197,2.1985,2.1999,2.1972,2.2079,2.2089,2.2099,2.2133,2.2146,2.1985,2.1985,2.1984,2.1984,0,2.1725,2.1767,2.1807,2.1839,2.1863,2.1914,2.1909,2.1935,2.1923,2.1925,2.1984,2.1998,2.2034,2.205,2.204,2.212,2.2106,2.2081,2.2038,2.2117,2.2149,2.2162,2.199,2.1989,2.1988,2.1987,0,0,2.1858,2.1881,2.1896,2.191,2.1932,2.1964,2.2012,2.2047,2.2069,2.2092,2.2132,2.2184,2.216,2.2179,2.217,2.2204,2.2282,2.2174,2.2174,2.2194,2.2371,2.2392,2.2407,2.2268,2.2271,2.2273,2.237,0,2.1955,2.204,2.203,2.211,2.2148,2.2119,2.2161,2.2179,2.2181,2.2214,2.2216,2.2253,2.2218,2.2229,2.2262,2.2266,2.2318,2.2259,2.2306,2.2308,2.2302,2.2424,2.2445,2.2536,2.2382,2.2384,2.2386,0,2.2082,2.2109,2.2193,2.2208,2.2223,2.2261,2.2291,2.2322,2.2341,2.234,2.236,2.2345,2.2392,2.2347,2.2412,2.2371,2.2389,2.2394,2.2397,2.2403,2.2353,2.2433,2.2565,2.2579,2.2405,2.2404,2.2402,0,2.2171,2.2228,2.2285,2.2298,2.2317,2.2344,2.2353,2.2369,2.239,2.2415,2.2429,2.246,2.2477,2.2501,2.2494,2.2461,2.256,2.2514,2.2561,2.2561,2.2584,2.2583,2.2722,2.2594,2.2594,2.2594,2.2593,0,2.2282,2.2335,2.2325,2.2361,2.2419,2.2406,2.2463,2.2468,2.2482,2.2518,2.2494,2.2528,2.2516,2.2549,2.2543,2.2597,2.2605,2.2606,2.2604,2.2609,2.2609,2.2622,2.2615,2.2597,2.2596,2.2596,2.2595,0,2.2392,2.2388,2.2449,2.2461,2.2465,2.2507,2.2517,2.255,2.2549,2.2595,2.2604,2.2604,2.2641,2.2635,2.2677,2.2673,2.2741,2.273,2.2735,2.2733,2.278,2.2776,2.2933,2.2953,2.2811,2.2812,2.2813,0,2.2464,2.2504,2.252,2.2542,2.2553,2.2588,2.2609,2.2597,2.262,2.2643,2.2673,2.2708,2.2735,2.2796,2.2798,2.283,2.2821,2.2873,2.2825,2.2828,2.2822,2.282,2.2824,2.2884,2.2885,2.2886,2.2887,0,2.2592,2.2588,2.2619,2.2649,2.2674,2.2697,2.2718,2.2737,2.2726,2.2752,2.279,2.2811,2.2852,2.2887,2.2916,2.2924,2.2905,2.2902,2.2915,2.2921,2.2922,2.2922,2.2762,2.2899,2.2898,2.2897,2.2897,2.2896,2.2686,2.272,2.2736,2.2771,2.2784,2.2804,2.2835,2.2838,2.2869,2.2902,2.2892,2.2935,2.2951,2.2987,2.2998,2.3031,2.3012,2.303,2.3034,2.3039,2.3045,2.2915,2.3036,2.3036,2.3035,2.3035,2.3035,0,2.2813,2.2822,2.2854,2.2883,2.291,2.2888,2.2909,2.2933,2.2971,2.2987,2.3014,2.3056,2.3089,2.3094,2.3125,2.315,2.3142,2.3159,2.3157,2.316,2.3061,2.3047,2.3165,2.3165,2.3165,2.3165,2.3165,2.3165,2.2883,2.2939,2.2936,2.2997,2.3005,2.3047,2.3061,2.3078,2.3091,2.3139,2.3167,2.3169,2.318,2.3212,2.3241,2.3241,2.3254,2.3275,2.3272,2.318,2.3167,2.3154,2.3142,2.3277,2.3278,2.3368,2.3369,2.337]}]]